Location: ?????????
(54.7630°N, 39.4991°E)
Time: 01:31:09
(UTC+00:00)

Cosmos 921 Rocket - Pass Details

Date: 14 April 2026
Orbit: 563 x 620 km, 75.8° (Epoch: 20 May)

Event Time Altitude Azimuth Distance (km) Brightness Sun altitude
Rises 19:13:22 0° 339° (NNW) 2,911 8.0 -20.2°
Reaches altitude 10° 19:15:46 10° 348° (NNW) 1,998 6.7 -20.4°
Maximum altitude 19:19:56 37° 56° (NE) 962 4.0 -20.7°
Enters shadow 19:20:54 33° 86° (E) 1,042 3.9 -20.8°
